sat.trackr.live / text

‹ back to catalog

STARLINK-3736

NORAD 52113 · 2022-029AB

PAYLOAD ACTIVE UNKNOWN

§ Identity

Operator
Country
US
Launch date
2022-03-19
Launch site
AFETR
Launch vehicle
Mass (kg)
RCS (m²)

Purposes: comms

External: N2YO · Heavens-Above · Gunter

§ Orbital elements

Epoch: 2026-09-19T15:43:58.602432Z

Period
93.85 min
Inclination
53.1607°
Eccentricity
0.0001247
Mean motion
15.34390773 rev/d
Perigee alt
461.9 km
Apogee alt
463.6 km
Semi-major
6,840.9 km
B*
2.8125e-5
RAAN
273.3187°
Arg perigee
84.1179°
Mean anomaly
275.9966°
Rev number
25,027

§ Raw data

STARLINK-37361 52113U 22029AB  26262.65553938  .00000574  00000+0  28125-4 0  99962 52113  53.1607 273.3187 0001247  84.1179 275.9966 15.34390773250273

JSON: /api/v1/satellites/52113 · /tle

For live sub-satellite position, see the globe view (requires WebGL).

§ Visibility from observer

Set your observer location to see the next 7 days of passes ≥ 10°. The values pass through the URL so the page stays shareable.

No JS? Fill the form by hand. The geolocation button needs JavaScript.